Simultaneous Nadir Overpasses (SNOs) Predictions

Prediction of SNOs between AQUA and NPP Satellite Orbit:

Table of predicted SNOs for the next 14.0 days since TLE Epoch: 10/12/2024
Index Date (AQUA) Time (AQUA) Lat,Lon (AQUA) SZA (AQUA ) Date (NPP) Time (NPP) Lat,Lon (NPP) SZA (NPP ) Distance(km) Time Diff (sec)
1 10/14/2024 00:04:42 -81.30, -73.97 84.92 10/14/2024 00:03:40 -81.29, -74.00 84.88 0.62 62
2 10/14/2024 00:54:02 81.30, 93.74 95.09 10/14/2024 00:54:24 81.30, 93.67 95.09 1.18 22
3 10/16/2024 11:17:14 -81.30, 118.04 84.06 10/16/2024 11:16:07 -81.30, 118.22 84.05 3.11 67
4 10/16/2024 12:06:34 81.30, -74.32 95.96 10/16/2024 12:06:52 81.29, -74.51 95.98 3.18 18
5 10/18/2024 22:29:41 -81.29, -50.32 83.16 10/18/2024 22:28:34 -81.29, -50.15 83.14 3.00 67
6 10/18/2024 23:19:00 81.30, 117.63 96.82 10/18/2024 23:19:18 81.30, 117.51 96.83 2.14 18
7 10/21/2024 09:42:03 -81.29, 141.70 82.32 10/21/2024 09:41:01 -81.29, 141.67 82.27 0.70 62
8 10/21/2024 10:31:22 81.30, -50.41 97.67 10/21/2024 10:31:44 81.30, -50.29 97.64 1.97 22
9 10/23/2024 20:54:20 -81.29, -26.27 81.49 10/23/2024 20:53:27 -81.29, -26.33 81.45 1.08 53



Historial Predications of SNOs between AQUA and NPP
